[[{"header":{"parameterUnit":"m.s-1","parameterCategory":1,"la1":30.2991,"la2":30.254,"lo1":-89.0895,"lo2":-89.0444,"dy":0.0017,"dx":0.0017,"nx":28,"ny":28,"refTime":"2025-03-01T03:00:00:Z","depth":0,"parameterNumber":2,"parameterNumberName":"U-component_of_WINDS"},"data":[0,0,0,0,0,0,0,0,0,0,0,0,0,0,0,0,0,0,0,0,0,0,0,0,0,0,0,0,0,0,0,0,0,0,0,0,0,0,0,0,0,0,0,0,0,0,0,0,0,0,0,0,0,0,0,0,0,0,-0.5528,-0.5527,0,-0.5415,-0.5414,-0.5413,-0.5343,-0.5343,-0.5342,-0.5342,-0.5227,-0.5224,-0.5222,0,0,0,0,0,0,0,0,0,0,0,0,0,-0.5687,-0.5684,-0.5529,-0.5527,-0.5526,-0.5415,-0.5414,-0.5412,-0.5343,-0.5343,-0.5342,-0.5342,-0.5228,-0.5225,-0.5221,0,0,0,0,0,0,0,0,0,0,0,0,0,-0.56,-0.5683,-0.5529,-0.5478,-0.5472,-0.5416,-0.5414,-0.5412,-0.5343,-0.5343,-0.5342,-0.5342,-0.5229,-0.5225,-0.5221,-0.5207,0,0,-0.5208,-0.5207,0,0,0,0,0,0,0,0,-0.5605,-0.5595,-0.5487,-0.5481,-0.5475,-0.5393,-0.5427,-0.5343,-0.5343,-0.5392,-0.5342,-0.5341,-0.5283,-0.5274,-0.5254,-0.5201,-0.5196,-0.5208,-0.5206,-0.5204,-0.5203,0,0,0,0,0,0,0,-0.5611,-0.5599,-0.5484,-0.5485,-0.5478,-0.5461,-0.5448,-0.5411,-0.5342,-0.5388,-0.5383,-0.537,-0.5279,-0.5258,-0.5251,-0.5195,-0.5208,-0.5205,-0.5202,-0.52,-0.5127,-0.5127,0,0,0,0,0,0,-0.5625,-0.5605,-0.5487,-0.548,-0.554,-0.5459,-0.5445,-0.542,-0.5342,-0.533,-0.5371,-0.5367,-0.5265,-0.5256,-0.5247,-0.5226,-0.5204,-0.52,-0.5198,-0.5126,-0.5127,-0.5127,0,0,0,0,0,0,-0.5629,-0.5616,-0.5492,-0.5541,-0.5524,-0.5457,-0.5429,-0.5418,-0.5396,-0.5329,-0.5317,-0.5362,-0.5265,-0.5252,-0.5217,-0.5221,-0.5198,-0.5194,-0.5126,-0.5126,-0.5127,-0.5185,0,0,0,0,0,0,-0.5634,-0.5617,-0.5611,-0.5541,-0.5522,-0.5464,-0.543,-0.5416,-0.539,-0.5384,-0.5317,-0.5306,-0.5263,-0.5224,-0.5213,-0.5215,-0.5191,-0.5125,-0.5126,-0.5127,-0.5182,-0.5188,-0.5192,0,0,0,0,0,-0.564,-0.5631,-0.5611,-0.5597,-0.5512,-0.5465,-0.5453,-0.5404,-0.539,-0.5383,-0.534,-0.5308,-0.5222,-0.5221,-0.5209,-0.5209,-0.5124,-0.5126,-0.5127,-0.518,-0.5187,-0.5192,0,0,0,0,0,0,-0.5702,-0.5621,-0.5597,-0.5566,-0.5523,-0.5453,-0.5443,-0.5412,-0.5372,-0.5369,-0.531,-0.5295,-0.5267,-0.5234,-0.5234,-0.5192,-0.517,-0.5169,-0.5215,-0.522,-0.5225,-0.5234,-0.5188,0,0,0,0,0,-0.5712,-0.568,-0.5611,-0.559,-0.557,-0.551,-0.5488,-0.5454,-0.5407,-0.5388,-0.5343,-0.5299,-0.5262,-0.5239,-0.5201,-0.5177,-0.5163,-0.5172,-0.5176,-0.5181,-0.5181,-0.5168,-0.5171,-0.5131,-0.5131,-0.5131,0,0,-0.5733,-0.5685,-0.5668,-0.5602,-0.5564,-0.5534,-0.5495,-0.5464,-0.5441,-0.5384,-0.5348,-0.5314,-0.5261,-0.5232,-0.5217,-0.5204,-0.5189,-0.5182,-0.5186,-0.5183,-0.5169,-0.5173,-0.5177,-0.5132,-0.5132,-0.5131,0,0,-0.5755,-0.5715,-0.5694,-0.5657,-0.5601,-0.5562,-0.5557,-0.5492,-0.5467,-0.5431,-0.5388,-0.536,-0.5297,-0.5262,-0.5236,-0.5247,-0.5217,-0.5236,-0.5262,-0.525,-0.5253,-0.5256,-0.5262,-0.5264,-0.5236,-0.5236,-0.5236,0,-0.5788,-0.5739,-0.5687,-0.5658,-0.5631,-0.5578,-0.5558,-0.5525,-0.546,-0.5443,-0.5429,-0.5351,-0.5311,-0.5274,-0.5277,-0.5257,-0.5251,-0.5244,-0.5257,-0.5259,-0.526,-0.5266,-0.5268,-0.5239,-0.5239,-0.5239,-0.5238,0,-0.5783,-0.5751,-0.574,-0.5679,-0.5651,-0.5626,-0.5571,-0.5549,-0.5518,-0.5481,-0.5446,-0.5397,-0.5349,-0.5338,-0.5307,-0.5297,-0.5291,-0.5268,-0.5244,-0.5268,-0.5272,-0.5273,-0.5243,-0.5242,-0.5242,-0.5241,0,0,-0.5841,-0.5753,-0.575,-0.5723,-0.5658,-0.5632,-0.5605,-0.5559,-0.5542,-0.5499,-0.5477,-0.5426,-0.5405,-0.5376,-0.534,-0.533,-0.5344,-0.5308,-0.5306,-0.5318,-0.5333,-0.5353,-0.5356,-0.5323,-0.5323,-0.5323,-0.5339,0,-0.5855,-0.5805,-0.5758,-0.5726,-0.5696,-0.5646,-0.5623,-0.5582,-0.5547,-0.5517,-0.5478,-0.5444,-0.5417,-0.5399,-0.5387,-0.5345,-0.5347,-0.5343,-0.5304,-0.5303,-0.532,-0.5357,-0.5377,-0.5393,-0.534,-0.534,-0.534,0,-0.5865,-0.5825,-0.579,-0.573,-0.5715,-0.5696,-0.5651,-0.5622,-0.5575,-0.555,-0.5518,-0.5481,-0.5453,-0.5432,-0.5393,-0.5392,-0.5373,-0.5351,-0.535,-0.5346,-0.5324,-0.5356,-0.5397,-0.5401,-0.5341,-0.5341,-0.5341,0,-0.5913,-0.585,-0.5822,-0.5799,-0.5728,-0.5716,-0.5686,-0.5638,-0.5614,-0.5574,-0.5558,-0.5516,-0.5494,-0.5463,-0.5416,-0.5405,-0.5383,-0.5358,-0.5364,-0.5365,-0.5362,-0.5363,-0.5403,-0.5347,-0.5347,-0.5347,-0.5347,0,-0.5934,-0.5915,-0.5843,-0.5825,-0.5803,-0.575,-0.5729,-0.5695,-0.5653,-0.5629,-0.5583,-0.5561,-0.55,-0.5472,-0.5435,-0.541,-0.54,-0.538,-0.5371,-0.5385,-0.5388,-0.5373,-0.5372,-0.5348,-0.5348,-0.5348,-0.5347,0,-0.5985,-0.5935,-0.5901,-0.5837,-0.582,-0.5807,-0.5752,-0.5734,-0.5697,-0.5667,-0.5657,-0.5599,-0.5563,-0.5514,-0.5463,-0.5438,-0.5419,-0.5403,-0.5435,-0.543,-0.5439,-0.544,-0.5472,-0.5475,-0.5416,-0.5417,-0.5418,0,-0.6002,-0.5987,-0.5921,-0.5902,-0.5873,-0.5842,-0.5818,-0.5765,-0.5741,-0.5687,-0.5676,-0.5638,-0.5604,-0.555,-0.5504,-0.5465,-0.5449,-0.5463,-0.5443,-0.5459,-0.5452,-0.5454,-0.5454,-0.5469,-0.5469,-0.547,-0.5471,0,-0.604,-0.6016,-0.5983,-0.5941,-0.5913,-0.5878,-0.584,-0.5827,-0.5767,-0.5743,-0.5706,-0.568,-0.5629,-0.5592,-0.5548,-0.5517,-0.5485,-0.5477,-0.5477,-0.5492,-0.5513,-0.5504,-0.5451,-0.5477,-0.5476,-0.5476,-0.5476,-0.5475,-0.6075,-0.606,-0.6012,-0.5977,-0.5943,-0.591,-0.589,-0.5851,-0.5819,-0.5774,-0.5744,-0.571,-0.5665,-0.5602,-0.5573,-0.5547,-0.5533,-0.5532,-0.5532,-0.5533,-0.5539,-0.5516,-0.5538,-0.5538,-0.5538,-0.5537,-0.5537,0,-0.6112,-0.6079,-0.6047,-0.5996,-0.5969,-0.594,-0.5898,-0.5877,-0.5848,-0.5808,-0.5776,-0.5735,-0.57,-0.5651,-0.5612,-0.56,-0.5585,-0.5592,-0.5593,-0.5587,-0.5552,-0.5558,-0.5605,-0.5605,-0.5605,-0.5605,-0.5605,-0.5605,-0.6128,-0.6101,-0.6073,-0.603,-0.5997,-0.5963,-0.5941,-0.5911,-0.5879,-0.5836,-0.5806,-0.5774,-0.5732,-0.569,-0.5656,-0.5643,-0.5632,-0.5644,-0.5627,-0.5596,-0.5589,-0.5584,-0.5588,-0.5642,-0.5642,-0.5664,-0.5665,-0.5665]},{"header":{"parameterUnit":"m.s-1","parameterCategory":1,"la1":30.2991,"la2":30.254,"lo1":-89.0895,"lo2":-89.0444,"dy":0.0017,"dx":0.0017,"nx":28,"ny":28,"refTime":"2025-03-01T03:00:00:Z","depth":0,"parameterNumber":3,"parameterNumberName":"V-component_of_WINDS"},"data":[0,0,0,0,0,0,0,0,0,0,0,0,0,0,0,0,0,0,0,0,0,0,0,0,0,0,0,0,0,0,0,0,0,0,0,0,0,0,0,0,0,0,0,0,0,0,0,0,0,0,0,0,0,0,0,0,0,0,0.4635,0.4634,0,0.4587,0.4586,0.4585,0.4519,0.4517,0.4516,0.4515,0.4466,0.4466,0.4466,0,0,0,0,0,0,0,0,0,0,0,0,0,0.4668,0.4668,0.4635,0.4634,0.4634,0.4587,0.4586,0.4585,0.4519,0.4517,0.4516,0.4515,0.4466,0.4466,0.4466,0,0,0,0,0,0,0,0,0,0,0,0,0,0.464,0.4668,0.4635,0.4595,0.4591,0.4587,0.4586,0.4585,0.4519,0.4517,0.4516,0.4514,0.4466,0.4466,0.4466,0.4497,0,0,0.4464,0.4464,0,0,0,0,0,0,0,0,0.4642,0.4639,0.4601,0.4597,0.4593,0.4557,0.458,0.4556,0.4519,0.4546,0.4515,0.4513,0.4498,0.4495,0.4489,0.4495,0.4493,0.4464,0.4464,0.4464,0.4464,0,0,0,0,0,0,0,0.4644,0.4641,0.4616,0.4601,0.4596,0.4579,0.4573,0.4575,0.4532,0.4544,0.4539,0.4534,0.4495,0.449,0.4488,0.4492,0.4464,0.4464,0.4464,0.4464,0.4518,0.4519,0,0,0,0,0,0,0.4652,0.4643,0.4617,0.4614,0.4614,0.458,0.4573,0.457,0.4532,0.4524,0.4536,0.4531,0.4491,0.4488,0.4486,0.4517,0.4464,0.4464,0.4463,0.4516,0.4518,0.452,0,0,0,0,0,0,0.4653,0.465,0.4619,0.4627,0.4622,0.4581,0.4578,0.457,0.4565,0.4526,0.4518,0.4538,0.449,0.4486,0.4494,0.4514,0.4463,0.4463,0.4514,0.4517,0.4519,0.4582,0,0,0,0,0,0,0.4654,0.4651,0.4663,0.4628,0.4622,0.4629,0.4579,0.457,0.4564,0.4558,0.4526,0.4519,0.4488,0.4495,0.4494,0.4513,0.4463,0.4512,0.4515,0.4518,0.4578,0.4586,0.4594,0,0,0,0,0,0.4656,0.4683,0.4664,0.4661,0.4636,0.463,0.4626,0.459,0.4566,0.4577,0.4552,0.452,0.4513,0.4496,0.4494,0.4514,0.451,0.4514,0.4518,0.4574,0.4585,0.4593,0,0,0,0,0,0,0.4722,0.4678,0.4656,0.4673,0.4656,0.4619,0.4632,0.4603,0.4592,0.4587,0.4543,0.4536,0.4549,0.4533,0.4515,0.4541,0.4507,0.451,0.455,0.456,0.4568,0.457,0.4463,0,0,0,0,0,0.4739,0.4738,0.47,0.4719,0.4711,0.4673,0.467,0.4643,0.4623,0.4616,0.4591,0.4573,0.4566,0.4563,0.4555,0.4576,0.4566,0.4589,0.4596,0.4603,0.4606,0.4612,0.462,0.4532,0.4532,0.4532,0,0,0.4774,0.4749,0.4752,0.4732,0.4715,0.4714,0.4667,0.4669,0.4668,0.4616,0.462,0.4602,0.4579,0.4593,0.4598,0.4579,0.4628,0.4608,0.4613,0.4612,0.4617,0.4625,0.4633,0.4534,0.4534,0.4534,0,0,0.4835,0.4818,0.483,0.4814,0.4789,0.4764,0.4767,0.4734,0.4719,0.4723,0.4684,0.4682,0.4672,0.4656,0.4647,0.4701,0.467,0.47,0.474,0.4747,0.4754,0.476,0.4776,0.4782,0.4703,0.4704,0.4704,0,0.4881,0.4878,0.484,0.4843,0.4835,0.4788,0.4799,0.4786,0.476,0.4754,0.4735,0.472,0.4702,0.4709,0.4722,0.4717,0.4718,0.4702,0.4756,0.4761,0.4766,0.4781,0.4787,0.4707,0.4707,0.4706,0.4706,0,0.4934,0.4932,0.4945,0.492,0.4913,0.4921,0.4883,0.4881,0.4856,0.4832,0.4836,0.4812,0.4796,0.4797,0.4773,0.4801,0.479,0.4764,0.4728,0.4779,0.4792,0.4797,0.4712,0.4711,0.471,0.4709,0,0,0.5034,0.4988,0.4992,0.4979,0.4948,0.4946,0.4951,0.4936,0.4933,0.4918,0.4918,0.4911,0.4886,0.4876,0.4849,0.4856,0.4896,0.4829,0.4827,0.4839,0.4921,0.4938,0.4945,0.4877,0.4878,0.4879,0.4922,0,0.5087,0.5091,0.5057,0.5071,0.5068,0.5023,0.5027,0.5008,0.4986,0.498,0.4956,0.4949,0.4919,0.4912,0.4917,0.489,0.4911,0.4887,0.4875,0.4875,0.4879,0.4953,0.4971,0.5013,0.4927,0.4928,0.4929,0,0.5148,0.5134,0.5147,0.5113,0.5111,0.5115,0.5096,0.5092,0.5069,0.5052,0.504,0.501,0.501,0.4979,0.4978,0.4962,0.4956,0.4942,0.4943,0.4938,0.4903,0.4946,0.5026,0.5031,0.4937,0.4936,0.4936,0,0.5215,0.52,0.5205,0.5196,0.5158,0.5161,0.5145,0.512,0.5113,0.5097,0.5091,0.5077,0.5068,0.5057,0.5023,0.5004,0.5025,0.4991,0.5009,0.501,0.5013,0.5012,0.5089,0.5015,0.5015,0.5015,0.5014,0,0.5275,0.5284,0.5234,0.5237,0.5245,0.5206,0.5215,0.5195,0.5173,0.517,0.5132,0.513,0.5087,0.508,0.5053,0.5055,0.5052,0.5037,0.5029,0.5038,0.504,0.5031,0.5026,0.5016,0.5016,0.5015,0.5015,0,0.5351,0.5318,0.532,0.5283,0.5274,0.5281,0.5249,0.525,0.5226,0.5222,0.5219,0.5181,0.517,0.5136,0.5117,0.5099,0.5108,0.5095,0.5115,0.5109,0.5127,0.5125,0.5199,0.5205,0.513,0.5131,0.5131,0,0.5389,0.5395,0.5359,0.5354,0.5339,0.5333,0.5324,0.5286,0.5279,0.5252,0.5255,0.5241,0.5228,0.5213,0.5183,0.5167,0.5152,0.5179,0.5149,0.5158,0.5148,0.5147,0.5146,0.5184,0.5186,0.5186,0.5187,0,0.546,0.5444,0.5433,0.5416,0.5407,0.5392,0.5375,0.5374,0.5331,0.5324,0.5313,0.5302,0.5282,0.5268,0.5248,0.5231,0.5201,0.5197,0.5199,0.5207,0.5217,0.5208,0.5128,0.5195,0.5194,0.5193,0.5193,0.5193,0.5516,0.5517,0.5491,0.548,0.5463,0.5448,0.5446,0.5421,0.5411,0.5391,0.537,0.536,0.5335,0.5304,0.5289,0.528,0.5264,0.5269,0.5269,0.527,0.5273,0.5221,0.5277,0.5276,0.5276,0.5276,0.5276,0,0.5582,0.5563,0.5553,0.553,0.552,0.5495,0.5474,0.5467,0.5459,0.5439,0.5426,0.5412,0.5397,0.5366,0.5349,0.5347,0.5333,0.5344,0.5342,0.5338,0.529,0.5288,0.5355,0.5355,0.5355,0.5355,0.5355,0.5355,0.5614,0.5615,0.5595,0.5586,0.5567,0.5557,0.5547,0.5532,0.5515,0.55,0.5488,0.5468,0.5442,0.5423,0.5408,0.5399,0.5393,0.5407,0.5394,0.5349,0.5341,0.5334,0.5331,0.5407,0.5407,0.5441,0.5442,0.5442]}]]